Regional Weather Roundup
Issued by NWS

Home | Current Version | Previous Version | Text Only | Print | Product List | Glossary On
Versions: 1 2 3 4 5 6 7 8 9 10 11 12 13 14 15 16 17 18 19 20 21 22 23 24 25 26 27 28 29 30 31 32 33 34 35 36 37 38 39 40 41 42 43 44 45 46 47 48 49 50
000
ASUS43 KDTX 120501
RWRMI
MICHIGAN HOURLY REGIONAL WEATHER ROUNDUP
NATIONAL WEATHER SERVICE DETROIT/PONTIAC MI
1200 AM EST FRI FEB 12 2016

NOTE: "FAIR" INDICATES FEW OR NO CLOUDS BELOW 12,000 FEET WITH NO
SIGNIFICANT WEATHER AND/OR OBSTRUCTION TO VISIBILITY.

MIZ047>049-052>055-059>063-066>070-074>076-081>083-120600-
SOUTHEAST LOWER MICHIGAN

CITY           SKY/WX    TMP DP  RH WIND       PRES   REMARKS
ADRIAN         CLEAR     14   5  67 W6        30.24F WCI   5
ALMA           CLEAR     14   8  77 S5        30.18F WCI   6
ANN ARBOR      CLEAR      6   3  87 W3        30.22S
BAD AXE        CLOUDY    15   7  71 W8        30.16F WCI   4
CARO           PTCLDY     5   0  78 SW5       30.18F WCI  -4
DETROIT CITY   CLEAR     16   6  65 W8        30.22F WCI   5
DETROIT        PTCLDY    15   6  67 SW7       30.24F WCI   5
FLINT          CLEAR     12   3  67 SW5       30.20F WCI   4
GROSSE ILE     CLEAR     16   7  67 CALM      30.23S
HILLSDALE      CLEAR     12   5  71 W5        30.20F WCI   5
HOWELL         CLEAR     11   8  85 W6        30.20S WCI   2

CITY           SKY/WX    TMP DP  RH WIND       PRES   REMARKS
JACKSON        CLEAR     11   6  81 W6        30.21F WCI   1
LAMBERTVILLE   MOCLDY    16   9  74 W3        30.25S
LANSING        CLEAR     13   6  74 SW7       30.21F WCI   3
LAPEER         FAIR      10   4  77 W3        30.19S
MASON          CLEAR     13   9  82 CALM      30.21S
MONROE         CLEAR     13   5  71 SW6       30.24S WCI   3
MT. CLEMENS    CLEAR     15   5  66 W8        30.20S WCI   3
PONTIAC        CLEAR     10   4  76 SW3       30.18S
PORT HOPE        N/A     17   7  64 W7        30.14F WCI   8
PORT HURON     PTCLDY     3   0  85 CALM      30.20S
TRI CITIES     PTCLDY    12   4  70 SW7       30.19F WCI   1
MIDLAND        FAIR      11   4  71 SW3       30.17F
TROY           CLEAR     15   6  68 SW3       30.23S
SAGINAW HB     PTCLDY    14   9  79 SW5       30.19F WCI   6
$$
MIZ043>046-050>051-056>058-064>065-071>073-077>080-120600-
SOUTHWEST LOWER MICHIGAN

CITY           SKY/WX    TMP DP  RH WIND       PRES   REMARKS
BATTLE CREEK   CLEAR     12   5  73 SW8       30.22F WCI   0
BENTON HARBOR  CLOUDY    12   4  70 S7        30.25F WCI   1
BIG RAPIDS     CLOUDY     9   6  86 CALM      30.14F
COLDWATER      CLEAR      8   3  78 SW3       30.23S
FREMONT        CLOUDY    11   6  78 CALM      30.18S
HOLLAND        CLOUDY    21   8  57 W10       30.21F WCI  10
GRAND RAPIDS   PTCLDY    15   8  73 S9        30.20F WCI   3
IONIA          FAIR      14   8  76 SW9       30.18F WCI   2
KALAMAZOO      CLEAR     10   3  73 SW8       30.23F WCI  -2
LUDINGTON      CLOUDY    20   7  57 W9        30.17F WCI   9
MARSHALL       MOCLDY    12   6  76 SW6       30.22S WCI   3
MOUNT PLEASANT PTCLDY    14   6  72 SW7       30.16F WCI   4
MUSKEGON       CLOUDY    22   7  52 W9        30.20F WCI  12
SOUTH HAVEN    CLOUDY    16   8  70 S5        30.23F WCI   9
$$
MIZ016>042-120600-
NORTHERN LOWER MICHIGAN

CITY           SKY/WX    TMP DP  RH WIND       PRES   REMARKS
ALPENA         MOCLDY    14   4  64 SW7       30.07F WCI   4
BEAVER ISLAND  CLOUDY    21   8  57 W23G31    30.03F WCI   4
BELLAIRE       CLOUDY    17  10  71 S10G16    30.08F WCI   5
CADILLAC       CLOUDY    11   6  79 SW8       30.07F WCI  -1
CHARLEVOIX     CLOUDY    22  11  62 SW15G21   30.07F WCI   9
FRANKFORT      CLOUDY    22   9  58 W9G23     30.11F WCI  11
GAYLORD        LGT SNOW  13   7  77 SW12      30.01F WCI  -1
GRAYLING       CLOUDY    12   6  76 SW7       30.07F WCI   2
HARBOR SPRINGS LGT SNOW  19  15  84 SW12G18   30.02F WCI   6
HOUGHTON LAKE  CLOUDY    13   6  74 SW7       30.10F WCI   3
MANISTEE       CLOUDY    21   3  45 W14G23    30.14F WCI   8
OSCODA         CLEAR     13   4  66 SW15      30.11F WCI  -3
PELLSTON       FLURRIES  15  11  83 SE5       30.02F WCI   8
ROGERS CITY    LGT SNOW  13   9  83 SW8       30.06F WCI   2
TRAVERSE CITY  CLOUDY    17   7  64 S6        30.09F WCI   9
$$
MIZ007>008-015-120600-
EASTERN UPPER MICHIGAN

CITY           SKY/WX    TMP DP  RH WIND       PRES   REMARKS
KINROSS        CLOUDY    16   9  73 W16G23    29.98F WCI   0
MACKINAC ISLAN LGT SNOW  19  14  80 W16G23    30.00F WCI   4
NEWBERRY       CLOUDY    13   3  64 SW13      29.99F WCI  -1
S. S. MARIE    CLOUDY    15   4  61 SW18G25   29.96F WCI  -2
$$
MIZ004>006-011>014-085-120600-
CENTRAL UPPER MICHIGAN

CITY           SKY/WX    TMP DP  RH WIND       PRES   REMARKS
MANISTIQUE     CLOUDY    15   0  52 W10       30.03F WCI   2
ESCANABA       CLOUDY    14   0  52 W8        30.07F WCI   3
MENOMINEE      CLOUDY    16  -2  45 W10G17    30.10F WCI   3
SAWYER-GWINN   PTCLDY     9   0  64 W8G16     30.00S WCI  -3
$$
MIZ001>003-009>011-084-120600-
WESTERN UPPER MICHIGAN

CITY           SKY/WX    TMP DP  RH WIND       PRES   REMARKS
IRON MOUNTAIN  CLOUDY    13  -4  46 W10       30.04F WCI   0
HOUGHTON       LGT SNOW  14   6  70 NW24G36   29.98S VSB 1   WCI  -5
COPPER HARBOR    N/A     18  10  71 N30G36    29.99S WCI  -1
IRONWOOD       CLOUDY    10   0  61 W12       30.05F WCI  -4
$$

ABBREVIATIONS USED IN REMARKS
   TC - TEMPERATURE IN CELSIUS
  WCI - WIND CHILL INDEX
   HX - HEAT INDEX
  VSB - VISIBILITY




USA.gov is the U.S. government's official web portal to all federal, state and local government web resources and services.